N1LID Lexington Park MD US current weather conditions

sailwx.info

Wind from 061

Air temperature 8.3° C
Dewpoint 3.4° C

Last reported at 2019-Dec-08 20:46 UTC.
Time now 2019-Dec-08 21:30 UTC

Location: N 38°15' W 076°27'.
View on Google Maps.

See reports from other nearby stations

  
Tides and Currents Weather Stations Pressure Air Temp Water Temp Dewpoint Dewpoint Depression Visibility Wind Speed Wind Dir Waves Ship Positions
date/time (UTC)wind fromknots sea level pressurealtimeterstation pressurevisibilityair tempwater tempwave heightnotes
2019-Dec-08 21:00 111 7.8
2019-Dec-08 20:46 061 8.3
2019-Dec-08 20:31 055 8.3
2019-Dec-08 20:16 107 8.9
2019-Dec-08 20:01 068 0 gusting 4 8.9
2019-Dec-08 19:45 150 0 gusting 4 9.4
2019-Dec-08 19:31 087 9.4
2019-Dec-08 19:15 138 9.4
2019-Dec-08 19:00 153 0 gusting 6 9.4
2019-Dec-08 18:45 171 9.4
2019-Dec-08 18:30 121 1 gusting 5 10.0
2019-Dec-08 18:15 159 9.4
2019-Dec-08 18:00 172 3 gusting 11 8.9
2019-Dec-08 17:45 174 9.4
2019-Dec-08 17:30 102 8.9
2019-Dec-08 17:15 160 8.3
2019-Dec-08 17:02 126 8.3
2019-Dec-08 16:46 167 0 gusting 6 7.8
2019-Dec-08 16:32 080 0 gusting 4 7.8
2019-Dec-08 16:16 130 0 gusting 5 7.2
2019-Dec-08 16:01 094 6.7
2019-Dec-08 15:47 078 6.1
2019-Dec-08 15:30 068 0 gusting 6 6.1
2019-Dec-08 15:16 057 6.1
2019-Dec-08 15:01 107 5.6
2019-Dec-08 14:46 082 5.0
2019-Dec-08 14:30 155 4.4
2019-Dec-08 14:15 024 2.8
2019-Dec-08 14:00 026 1.1
2019-Dec-08 13:45 103 -0.6
2019-Dec-08 13:30 034 -1.7
2019-Dec-08 13:15 031 -2.8
2019-Dec-08 13:00 031 -3.3
2019-Dec-08 12:45 031 -3.3
2019-Dec-08 12:30 031 -3.3
2019-Dec-08 12:15 031 -3.3
2019-Dec-08 12:00 031 -3.3
2019-Dec-08 11:45 031 -3.3
2019-Dec-08 11:30 031 -3.3
2019-Dec-08 11:15 031 -3.3
2019-Dec-08 11:01 031 -3.3
2019-Dec-08 10:46 031 -3.3
2019-Dec-08 10:32 031 -3.3
2019-Dec-08 10:17 031 -3.3
2019-Dec-08 10:02 031 -3.3
2019-Dec-08 09:47 031 -3.3
2019-Dec-08 09:31 031 -3.3
2019-Dec-08 09:17 031 -3.3
2019-Dec-08 09:01 032 -3.3
2019-Dec-08 08:47 009 -3.9
2019-Dec-08 08:31 009 -3.9
2019-Dec-08 08:17 009 -3.3
2019-Dec-08 08:01 009 -3.3
2019-Dec-08 07:46 009 -3.3
2019-Dec-08 07:32 009 -3.3
2019-Dec-08 07:16 009 -3.3
2019-Dec-08 07:02 009 -3.3
2019-Dec-08 06:47 009 -3.3
2019-Dec-08 06:31 009 -2.8
2019-Dec-08 06:16 009 -2.8
2019-Dec-08 06:01 009 -2.8
2019-Dec-08 05:46 009 -2.8
2019-Dec-08 05:31 009 -2.8
2019-Dec-08 05:16 009 -2.8
2019-Dec-08 05:00 009 -2.8
2019-Dec-08 04:45 009 -2.8
2019-Dec-08 04:30 009 -2.2
2019-Dec-08 04:16 009 -2.2
2019-Dec-08 04:00 009 -2.2
2019-Dec-08 03:45 009 -2.2
2019-Dec-08 03:30 009 -2.2
2019-Dec-08 03:16 009 -2.2
2019-Dec-08 03:00 009 -2.2
2019-Dec-08 02:46 009 -1.7
2019-Dec-08 02:31 009 -1.7
2019-Dec-08 02:15 009 -1.7
2019-Dec-08 02:01 009 -1.7
2019-Dec-08 01:45 009 -1.7
2019-Dec-08 01:30 009 -1.7
2019-Dec-08 01:15 009 -1.1
2019-Dec-08 01:00 009 -1.1
2019-Dec-08 00:45 009 -1.1
2019-Dec-08 00:30 009 -0.6
2019-Dec-08 00:15 009 -0.6
2019-Dec-07 23:46 009 -0.0
2019-Dec-07 23:32 009 0.6
2019-Dec-07 23:16 009 1.1
2019-Dec-07 23:02 009 1.1
2019-Dec-07 22:46 009 1.7
2019-Dec-07 22:31 009 2.2
2019-Dec-07 22:16 009 2.8
2019-Dec-07 22:01 009 3.3
2019-Dec-07 21:45 009 3.9
2019-Dec-07 21:31 009 4.4
2019-Dec-07 21:15 009 5.0
2019-Dec-07 21:01 360 5.6
2019-Dec-07 20:46 355 5.6
2019-Dec-07 20:30 355 6.1
2019-Dec-07 20:15 252 6.7
2019-Dec-07 20:00 343 7.2
2019-Dec-07 19:45 035 7.8
2019-Dec-07 19:30 020 7.2
2019-Dec-07 19:15 299 7.2
2019-Dec-07 19:00 016 7.2
2019-Dec-07 18:45 077 7.2
2019-Dec-07 18:31 028 6.7
2019-Dec-07 18:15 317 6.7
2019-Dec-07 18:00 316 6.7
2019-Dec-07 17:45 355 6.7
2019-Dec-07 17:30 299 6.7
2019-Dec-07 17:15 074 6.1
2019-Dec-07 17:00 068 6.7
2019-Dec-07 16:45 090 6.7
2019-Dec-07 16:30 251 6.7
2019-Dec-07 16:15 005 6.1
2019-Dec-07 16:00 078 5.6
2019-Dec-07 15:45 360 0 gusting 3 5.6
2019-Dec-07 15:30 323 5.6
2019-Dec-07 15:15 064 5.6
2019-Dec-07 15:00 288 5.0
2019-Dec-07 14:45 074 5.6
2019-Dec-07 14:30 086 5.0
2019-Dec-07 14:15 069 0 gusting 5 4.4
2019-Dec-07 14:00 074 3.9
2019-Dec-07 13:45 091 3.3
2019-Dec-07 13:30 355 3.3
2019-Dec-07 13:15 137 2.8
2019-Dec-07 13:00 082 2.8
2019-Dec-07 12:45 032 2.8
2019-Dec-07 12:31 215 2.2
2019-Dec-07 12:17 337 2.2
2019-Dec-07 12:01 337 2.2
2019-Dec-07 11:47 314 2.8
2019-Dec-07 11:31 355 2.8
2019-Dec-07 11:16 360 3.3
2019-Dec-07 11:01 317 3.3
2019-Dec-07 10:31 355 3.9
2019-Dec-07 10:16 048 3.9
2019-Dec-07 10:00 306 0 gusting 8 4.4
2019-Dec-07 09:46 326 5.0
2019-Dec-07 09:30 288 5.0
2019-Dec-07 09:15 300 5.6
2019-Dec-07 09:01 329 0 gusting 5 5.6
2019-Dec-07 08:45 326 0 gusting 4 5.6
2019-Dec-07 08:30 019 6.1
2019-Dec-07 08:15 335 6.1
2019-Dec-07 08:00 350 6.7
2019-Dec-07 07:45 026 6.7
2019-Dec-07 07:32 038 6.7
2019-Dec-07 07:18 345 7.2
2019-Dec-07 07:01 300 0 gusting 5 7.8
2019-Dec-07 06:47 355 0 gusting 4 7.8
2019-Dec-07 06:31 339 8.3
2019-Dec-07 06:16 279 0 gusting 7 8.9
2019-Dec-07 06:01 051 0 gusting 7 9.4
2019-Dec-07 05:46 350 9.4
2019-Dec-07 05:31 318 9.4
2019-Dec-07 05:16 355 8.9
2019-Dec-07 05:00 244 8.9
2019-Dec-07 04:46 244 8.3
2019-Dec-07 04:31 244 8.3
2019-Dec-07 04:16 244 7.8
2019-Dec-07 04:00 244 8.3
2019-Dec-07 03:46 244 8.3
2019-Dec-07 03:31 244 8.3
2019-Dec-07 03:15 244 8.9
2019-Dec-07 03:01 244 9.4
2019-Dec-07 02:46 244 9.4
2019-Dec-07 02:31 244 9.4
2019-Dec-07 02:16 240 9.4
2019-Dec-07 02:00 240 8.9
2019-Dec-07 01:46 240 8.9
2019-Dec-07 01:30 240 0 gusting 2 8.9
2019-Dec-07 01:15 232 8.9
2019-Dec-07 01:01 207 9.4
2019-Dec-07 00:45 206 9.4
2019-Dec-07 00:30 244 10.0
2019-Dec-07 00:15 237 10.6
2019-Dec-07 00:00 225 10.6
2019-Dec-06 23:46 194 10.6
2019-Dec-06 23:30 246 0 gusting 4 10.6
2019-Dec-06 23:15 218 0 gusting 6 11.1
2019-Dec-06 23:00 243 1 gusting 6 11.1
2019-Dec-06 22:46 261 0 gusting 8 11.1
2019-Dec-06 22:30 212 0 gusting 4 10.6
2019-Dec-06 22:15 213 0 gusting 4 10.6
2019-Dec-06 22:00 223 10.6
2019-Dec-06 21:45 240 11.1
2019-Dec-06 21:30 202 11.1
2019-Dec-06 21:16 215 0 gusting 4 11.1
2019-Dec-06 21:00 218 11.1